Wind_Speed
27 27 27 26 27 27 27 27 27 27 27 27 27 26 25 26 27 26 26 26 25 25 25 27 27 28 27 27 28 29 30 30 30 31 32 32 33 34 34 35 36 37 38 39
28 28 27 28 28 28 28 27 27 27 27 27 27 27 26 26 26 26 26 25 25 23 23 25 26 27 27 27 27 28 29 30 31 31 32 33 33 33 33 35 36 37 38 38
30 30 29 29 29 29 28 28 28 28 28 28 29 27 25 25 26 26 26 25 24 24 22 22 23 25 25 25 26 27 29 30 30 31 32 33 33 34 34 35 36 37 38 39
32 31 31 31 30 30 29 29 30 29 29 29 29 29 26 26 25 26 25 25 25 24 23 22 23 24 24 25 26 28 28 29 29 29 30 31 33 35 35 35 36 36 38 39
33 32 31 31 31 31 31 31 31 31 31 31 29 30 28 27 26 26 26 25 25 25 24 24 24 23 24 25 26 28 29 29 29 30 31 32 32 34 35 35 36 37 37 38
34 33 33 32 32 32 33 33 33 32 32 32 29 30 30 28 27 26 25 25 25 25 25 25 24 24 24 24 26 27 28 29 29 31 31 32 32 33 33 34 34 36 37 37
35 34 35 34 34 34 34 34 35 35 34 33 31 31 31 29 27 26 25 25 24 25 25 25 25 25 25 25 25 26 28 29 30 31 31 32 32 32 32 32 33 35 36 36
36 36 35 36 35 35 35 35 35 36 35 34 33 32 31 29 28 26 25 25 25 25 25 25 25 26 26 26 25 26 27 28 29 30 31 32 32 33 33 32 33 34 35 36
37 38 37 37 37 37 37 36 35 36 36 36 34 33 31 29 28 27 26 25 25 25 25 25 25 26 27 27 26 26 27 28 29 30 30 31 31 32 33 33 34 34 35 35
38 38 37 37 37 36 36 35 35 35 36 36 35 33 31 29 28 27 26 25 26 26 26 26 26 26 27 28 28 27 27 28 30 30 31 31 31 33 34 34 35 36 37 38
38 38 38 38 37 36 35 35 35 35 37 37 36 34 32 30 29 28 27 26 26 26 27 27 27 27 28 29 28 27 27 28 30 31 32 32 32 33 34 35 36 37 37 38
38 39 39 38 37 37 36 35 34 35 36 36 36 35 32 30 30 29 29 27 27 27 27 28 27 27 28 28 28 28 28 28 29 31 33 34 33 33 34 35 36 37 36 37
38 38 39 38 37 36 35 35 35 35 36 36 35 34 32 31 31 30 30 29 29 28 29 29 29 29 28 29 28 29 28 28 29 30 31 33 33 32 33 34 35 36 36 37
37 37 37 36 35 35 35 34 34 35 36 37 35 33 32 32 32 31 30 31 30 29 29 29 29 29 29 29 29 29 29 29 28 29 30 32 32 32 32 33 35 35 35 36
36 35 35 35 34 34 34 34 34 35 36 36 34 33 33 33 32 32 31 31 32 31 31 31 31 31 30 30 30 30 30 29 30 30 30 32 33 33 33 34 34 35 35 35
35 36 36 35 35 35 35 34 34 35 35 35 34 33 33 33 33 32 32 32 33 33 33 33 33 32 32 32 31 31 31 31 31 31 32 32 33 33 34 34 34 35 35 35
34 34 35 35 35 36 36 33 33 33 34 34 33 33 33 33 33 33 33 33 34 34 34 34 34 34 34 33 33 33 33 32 33 33 33 34 34 34 33 33 34 35 35 35
33 32 33 34 33 34 33 32 32 32 32 32 32 32 33 33 33 33 33 33 33 34 34 35 35 35 35 35 34 34 34 34 34 35 35 36 36 36 35 35 35 34 35 36
31 31 31 31 32 32 32 30 30 31 32 32 32 33 33 33 33 33 33 33 33 34 34 34 34 35 35 35 35 35 35 36 36 36 36 36 36 36 36 36 36 36 36 37
30 30 30 30 31 31 31 30 30 31 31 31 32 32 32 32 33 33 33 33 33 34 34 35 35 35 35 35 36 36 36 37 37 37 36 37 36 36 36 36 37 37 37 37
30 29 30 30 31 31 30 29 29 30 30 30 31 31 31 31 33 33 34 34 35 35 35 35 35 35 35 35 36 36 36 36 36 36 37 37 37 37 37 37 37 38 38 38
29 29 29 30 30 30 29 29 29 29 29 30 31 31 31 31 32 33 34 34 35 36 36 36 35 36 36 36 36 36 36 36 36 36 36 36 36 36 37 37 38 39 39 39
29 29 29 29 30 30 30 29 29 29 29 30 30 31 32 32 33 33 34 35 36 36 37 37 37 37 37 36 36 36 36 36 35 34 34 35 35 36 36 36 36 37 38 38
29 29 29 29 29 29 29 29 29 29 29 30 30 30 31 32 33 34 34 35 36 36 37 37 37 36 36 35 35 35 35 35 35 34 34 34 34 34 35 35 35 36 37 38
27 28 28 28 28 28 28 28 27 28 28 29 29 30 30 31 31 32 33 34 35 35 36 36 36 35 35 34 34 35 35 35 35 35 35 34 34 33 34 34 35 36 37 38
27 27 27 27 27 27 27 27 27 27 27 28 28 28 29 28 28 28 29 30 31 31 32 33 33 33 33 34 34 35 35 35 35 35 34 34 33 33 34 34 35 36 37 38
Wind_Direction
273 274 276 277 277 278 279 281 283 284 285 285 286 287 287 285 284 283 281 279 279 278 273 267 262 258 259 258 254 250 247 247 249 250 250 250 250 250 249 249 249 249 247 245
272 273 275 275 276 277 279 280 282 283 284 285 285 285 286 284 284 284 282 281 278 278 275 269 263 260 259 259 255 253 249 249 249 251 250 251 251 249 250 251 250 249 248 245
272 274 274 274 275 276 277 279 281 281 283 283 285 284 284 282 283 284 283 281 278 278 276 270 263 259 257 260 257 256 256 251 251 251 251 251 251 250 250 251 251 250 248 246
271 273 273 273 273 274 275 277 278 280 281 283 284 284 283 283 283 284 283 280 278 277 274 270 265 262 261 262 258 257 258 253 252 252 252 252 253 252 252 252 252 251 249 247
272 272 272 272 272 273 275 277 278 279 279 280 281 283 282 282 283 283 282 280 277 276 274 269 267 267 264 262 261 260 260 255 255 255 253 253 255 256 255 253 253 252 251 249
272 271 271 271 271 272 274 275 276 277 278 277 278 280 281 283 284 283 281 278 276 275 272 270 268 267 268 266 264 263 260 257 258 258 256 255 256 256 255 256 255 254 252 250
272 271 270 270 270 271 272 274 276 277 276 276 277 277 280 281 281 282 279 277 274 271 269 270 270 269 268 267 267 264 261 259 259 260 258 257 257 256 256 256 256 254 252 252
273 272 271 270 270 271 271 272 273 275 276 276 276 276 279 280 279 279 277 275 273 271 269 269 269 269 268 268 268 266 262 260 261 260 259 258 258 257 255 256 256 254 252 252
272 271 271 270 270 270 270 269 270 271 272 272 273 275 276 277 278 277 275 273 272 271 269 269 268 266 267 268 269 267 263 261 261 261 260 259 258 257 256 256 256 255 253 253
271 272 271 270 269 269 269 270 269 267 269 271 273 273 274 275 275 273 273 270 270 269 268 267 268 267 267 267 269 266 264 263 262 261 260 260 260 259 257 257 257 257 256 256
271 271 270 269 268 268 267 266 266 266 266 268 271 272 272 272 270 270 269 268 268 269 269 268 269 268 268 268 268 267 265 264 262 261 261 261 262 261 259 258 257 257 257 257
271 270 270 269 268 266 265 264 264 265 266 266 268 270 271 271 269 267 266 266 266 267 268 269 269 270 270 268 267 267 266 265 264 262 262 262 262 262 261 260 258 257 257 259
270 269 269 269 267 266 264 263 263 263 264 264 265 268 269 267 265 265 265 265 265 265 266 268 268 269 270 269 269 268 269 268 266 265 263 262 262 262 262 262 260 258 258 259
269 268 267 268 268 267 264 263 264 264 264 264 265 266 265 265 265 265 265 264 264 264 265 266 267 269 270 271 270 269 269 269 268 266 264 264 263 262 263 263 262 261 260 260
266 267 266 265 265 265 262 261 263 263 263 264 264 263 263 263 264 266 265 264 263 264 265 266 268 270 271 271 272 270 268 268 268 267 265 265 265 263 263 264 265 264 262 261
265 265 265 264 264 264 262 261 262 262 261 262 261 260 261 262 263 264 264 263 262 263 264 266 268 269 270 270 272 271 269 268 268 268 268 268 267 265 264 264 264 264 263 263
267 268 266 265 263 263 261 261 262 262 262 262 261 260 261 261 262 263 264 263 263 264 264 265 267 268 269 269 270 271 269 269 269 270 270 269 268 267 264 263 264 264 263 263
268 268 268 266 264 261 262 261 262 261 260 260 260 260 260 261 262 262 263 265 265 264 264 264 266 268 270 271 271 271 271 271 272 272 271 270 269 268 266 265 263 264 265 265
267 267 267 266 266 265 262 261 262 262 261 260 260 260 260 260 261 262 264 265 266 264 264 264 265 267 270 271 271 271 271 271 272 272 272 271 271 268 266 265 265 266 267 266
264 264 265 265 265 266 266 263 263 263 263 261 262 262 262 261 262 263 265 266 266 265 266 266 267 268 270 271 272 273 273 271 271 271 270 270 270 268 267 266 267 268 268 267
261 260 262 264 265 266 267 265 263 264 265 264 264 264 263 263 265 266 267 267 266 266 266 267 269 269 270 271 272 273 273 272 272 271 270 270 269 269 268 267 267 267 268 268
260 260 261 262 263 265 268 267 264 264 263 264 264 265 266 266 267 268 270 270 268 268 268 269 269 270 270 271 271 271 272 272 271 271 271 270 269 268 268 267 267 267 267 268
259 259 261 262 262 264 266 267 265 264 265 266 268 269 270 270 271 271 272 271 269 269 269 270 270 271 271 272 272 271 272 272 272 272 272 271 269 269 268 267 268 268 268 268
260 260 260 260 261 263 265 265 266 265 265 266 268 271 273 273 273 273 271 269 269 269 270 271 271 271 272 272 272 272 272 272 272 271 272 272 271 270 269 268 269 270 270 270
261 260 259 259 259 260 261 264 266 267 267 267 268 270 272 273 272 272 271 271 271 271 271 271 271 272 271 271 271 271 272 272 272 271 272 271 270 270 270 270 271 272 273 273
261 261 261 260 258 259 261 262 264 266 268 269 269 271 272 272 272 272 274 274 273 272 271 271 272 271 271 271 270 270 270 271 271 271 271 270 269 269 270 271 272 273 274 274
Height
5745 5745 5744 5743 5741 5740 5738 5737 5736 5734 5732 5729 5728 5726 5725 5722 5720 5719 5718 5716 5715 5714 5713 5712 5712 5712 5712 5713 5714 5716 5718 5720 5722 5724 5726 5728 5729 5730 5732 5734 5735 5736 5738 5741
5738 5737 5737 5734 5733 5732 5731 5729 5728 5727 5724 5722 5720 5719 5718 5715 5713 5712 5710 5709 5708 5707 5706 5705 5705 5705 5706 5706 5707 5709 5711 5713 5714 5716 5718 5720 5721 5722 5724 5725 5726 5728 5729 5732
5730 5730 5728 5726 5725 5724 5723 5722 5720 5719 5717 5714 5713 5712 5711 5709 5707 5705 5703 5702 5701 5700 5700 5699 5699 5699 5699 5700 5702 5703 5704 5706 5707 5708 5710 5711 5713 5714 5715 5716 5718 5719 5720 5722
5721 5721 5719 5718 5717 5715 5715 5714 5712 5710 5709 5707 5706 5703 5705 5702 5701 5699 5697 5695 5694 5694 5694 5693 5693 5693 5693 5694 5695 5696 5696 5698 5699 5700 5702 5703 5705 5706 5707 5708 5709 5710 5711 5713
5712 5711 5710 5709 5709 5707 5706 5705 5704 5702 5700 5699 5699 5696 5697 5696 5694 5692 5690 5689 5688 5688 5687 5688 5687 5688 5688 5688 5689 5689 5689 5690 5692 5693 5694 5695 5696 5697 5698 5698 5699 5701 5702 5704
5702 5701 5700 5700 5699 5698 5697 5696 5695 5693 5692 5691 5692 5689 5688 5688 5687 5686 5684 5682 5681 5681 5681 5681 5681 5681 5682 5682 5682 5682 5682 5683 5684 5685 5686 5687 5688 5688 5689 5690 5691 5692 5693 5695
5692 5692 5691 5690 5689 5688 5688 5687 5686 5684 5683 5683 5683 5681 5682 5681 5680 5678 5677 5676 5675 5675 5674 5674 5674 5675 5675 5675 5675 5675 5675 5676 5677 5677 5678 5679 5680 5680 5681 5681 5682 5683 5684 5686
5681 5681 5681 5680 5679 5679 5678 5678 5678 5676 5675 5674 5674 5673 5675 5673 5672 5671 5670 5669 5668 5668 5668 5668 5668 5668 5668 5668 5668 5668 5668 5669 5669 5670 5670 5671 5671 5672 5673 5673 5674 5675 5676 5677
5669 5670 5670 5670 5669 5669 5668 5667 5667 5666 5664 5664 5664 5665 5666 5665 5664 5663 5662 5662 5661 5661 5661 5661 5661 5661 5661 5661 5661 5661 5661 5661 5661 5661 5662 5662 5663 5663 5664 5665 5665 5666 5667 5668
5658 5658 5659 5658 5658 5657 5657 5657 5656 5655 5654 5654 5655 5657 5658 5657 5656 5655 5655 5654 5654 5654 5654 5654 5654 5654 5654 5654 5653 5654 5653 5653 5653 5653 5653 5654 5654 5655 5655 5656 5657 5657 5658 5659
5646 5646 5647 5647 5646 5647 5647 5646 5645 5645 5645 5645 5645 5649 5648 5648 5647 5647 5647 5647 5646 5647 5646 5647 5646 5646 5646 5646 5645 5645 5645 5645 5645 5645 5645 5645 5645 5646 5646 5647 5647 5648 5648 5650
5634 5634 5634 5635 5635 5635 5635 5635 5636 5636 5636 5635 5636 5640 5638 5639 5638 5638 5639 5639 5639 5639 5639 5639 5639 5638 5638 5638 5637 5637 5637 5637 5637 5636 5636 5636 5636 5636 5636 5637 5637 5638 5638 5639
5622 5622 5622 5623 5625 5624 5623 5624 5625 5625 5625 5625 5626 5631 5629 5629 5629 5629 5629 5630 5630 5630 5630 5630 5631 5630 5630 5629 5629 5629 5629 5629 5628 5628 5627 5627 5627 5627 5627 5627 5627 5628 5628 5629
5610 5610 5612 5613 5612 5612 5613 5614 5614 5614 5614 5615 5617 5619 5620 5618 5619 5620 5620 5620 5621 5621 5622 5622 5622 5622 5621 5621 5620 5620 5620 5619 5619 5619 5619 5618 5618 5618 5618 5618 5618 5618 5619 5619
5598 5600 5600 5601 5601 5601 5602 5603 5604 5604 5605 5605 5608 5609 5609 5609 5609 5610 5610 5611 5611 5612 5612 5613 5613 5613 5613 5612 5612 5611 5611 5611 5610 5610 5610 5609 5609 5608 5608 5608 5608 5608 5609 5609
5588 5589 5589 5590 5591 5590 5591 5593 5593 5594 5595 5596 5597 5598 5599 5599 5599 5600 5600 5601 5602 5602 5603 5603 5603 5603 5603 5603 5603 5603 5602 5602 5601 5601 5600 5600 5599 5599 5599 5599 5599 5599 5599 5600
5578 5578 5579 5580 5580 5579 5581 5584 5584 5584 5585 5586 5587 5589 5589 5589 5590 5590 5590 5591 5591 5592 5593 5593 5593 5593 5594 5594 5593 5593 5592 5592 5591 5591 5591 5590 5590 5589 5589 5589 5589 5589 5590 5590
5568 5568 5567 5568 5570 5569 5574 5574 5574 5574 5575 5575 5576 5577 5578 5579 5579 5580 5580 5581 5581 5582 5583 5583 5583 5583 5583 5583 5583 5583 5582 5582 5581 5581 5580 5580 5579 5579 5579 5579 5579 5579 5580 5580
5558 5558 5558 5559 5559 5559 5563 5564 5564 5564 5565 5566 5566 5567 5568 5569 5569 5570 5570 5570 5571 5571 5572 5573 5573 5573 5573 5573 5573 5573 5572 5571 5571 5570 5569 5569 5569 5569 5569 5569 5569 5569 5569 5570
5549 5549 5550 5549 5549 5550 5554 5554 5554 5555 5555 5557 5556 5557 5558 5559 5560 5561 5560 5560 5560 5561 5561 5562 5562 5562 5562 5562 5562 5562 5561 5561 5560 5559 5559 5558 5558 5558 5558 5558 5558 5558 5559 5559
5540 5540 5540 5540 5540 5541 5543 5544 5545 5547 5547 5547 5547 5547 5548 5548 5549 5550 5549 5550 5550 5550 5551 5551 5551 5551 5551 5551 5551 5551 5550 5550 5549 5549 5548 5548 5548 5547 5547 5548 5548 5548 5548 5548
5530 5531 5532 5532 5532 5535 5534 5534 5536 5536 5536 5537 5537 5538 5538 5538 5538 5538 5538 5539 5539 5539 5539 5540 5540 5540 5539 5539 5539 5539 5539 5538 5538 5538 5537 5537 5537 5537 5537 5537 5537 5537 5537 5537
5520 5522 5522 5524 5525 5524 5525 5525 5526 5526 5527 5527 5527 5528 5528 5528 5528 5528 5527 5527 5528 5528 5528 5528 5528 5528 5528 5527 5527 5528 5528 5527 5527 5527 5526 5526 5526 5526 5526 5526 5526 5526 5526 5525
5511 5512 5513 5514 5515 5515 5516 5516 5516 5517 5517 5517 5518 5518 5517 5517 5517 5517 5516 5516 5516 5516 5516 5516 5517 5517 5516 5516 5516 5516 5516 5516 5516 5516 5516 5515 5515 5515 5515 5515 5515 5515 5514 5514
5503 5503 5504 5505 5506 5507 5507 5507 5508 5508 5508 5508 5508 5508 5507 5507 5506 5506 5506 5505 5505 5505 5505 5505 5505 5505 5505 5505 5504 5504 5504 5505 5505 5505 5505 5505 5504 5504 5504 5504 5504 5503 5503 5502
5494 5495 5495 5496 5497 5498 5499 5499 5499 5499 5499 5499 5498 5498 5498 5497 5497 5496 5496 5495 5495 5495 5494 5494 5494 5494 5494 5494 5493 5493 5493 5493 5493 5493 5493 5493 5493 5493 5493 5493 5493 5492 5491 5490